GW5693 Weather Reports


Display with metric or nautical units.
time (UTC)temp
F
wind
direction
speed
MPH
gust
MPH
rain 1hr
in
rain 24hr
in
rain mn
in
humidity
%
barometer
mb
20260503212305 66 284 3.0 6.0 0.00 0.00 0.00 18 1015.8
20260503211304 67 267 2.0 3.0 0.00 0.00 0.00 17 1015.7
20260503210803 67 259 2.0 8.0 0.00 0.00 0.00 19 1015.8
20260503210304 67 243 2.0 7.0 0.00 0.00 0.00 20 1015.8
20260503205804 67 284 1.0 5.0 0.00 0.00 0.00 21 1015.9
20260503205304 67 273 3.0 6.0 0.00 0.00 0.00 21 1015.9
20260503204804 66 106 1.0 2.0 0.00 0.00 0.00 21 1015.8
20260503204303 66 232 2.0 6.0 0.00 0.00 0.00 20 1015.9
20260503203804 66 188 2.0 6.0 0.00 0.00 0.00 20 1016.1
20260503203304 66 218 2.0 7.0 0.00 0.00 0.00 20 1016.1
20260503202803 66 261 3.0 9.0 0.00 0.00 0.00 20 1016.1
20260503202304 66 261 2.0 5.0 0.00 0.00 0.00 24 1016.1
20260503201805 65 248 3.0 5.0 0.00 0.00 0.00 21 1016.1
20260503201304 66 349 1.0 6.0 0.00 0.00 0.00 23 1016.1
20260503200803 66 281 2.0 7.0 0.00 0.00 0.00 22 1016.2
20260503200303 66 311 2.0 3.0 0.00 0.00 0.00 22 1016.4
20260503195803 65 314 2.0 3.0 0.00 0.00 0.00 21 1016.5
20260503195304 65 276 2.0 7.0 0.00 0.00 0.00 22 1016.7
20260503194803 65 263 2.0 6.0 0.00 0.00 0.00 23 1016.6
20260503194304 65 275 3.0 6.0 0.00 0.00 0.00 24 1016.7
20260503193804 65 192 2.0 6.0 0.00 0.00 0.00 23 1016.7
20260503192803 65 271 3.0 9.0 0.00 0.00 0.00 24 1016.7
20260503192305 64 266 2.0 5.0 0.00 0.00 0.00 24 1016.7
20260503191804 64 343 3.0 7.0 0.00 0.00 0.00 22 1016.8
20260503191303 64 215 3.0 10.0 0.00 0.00 0.00 23 1017.0
20260503190805 64 176 4.0 9.0 0.00 0.00 0.00 24 1017.1
20260503190303 64 247 3.0 10.0 0.00 0.00 0.00 24 1017.1
20260503185804 64 333 2.0 5.0 0.00 0.00 0.00 25 1017.1
20260503185305 64 217 2.0 6.0 0.00 0.00 0.00 26 1017.3
20260503184803 64 336 2.0 3.0 0.00 0.00 0.00 24 1017.4
20260503184303 63 259 1.0 3.0 0.00 0.00 0.00 24 1017.6
20260503183304 64 298 2.0 8.0 0.00 0.00 0.00 27 1017.6
20260503182305 62 242 3.0 7.0 0.00 0.00 0.00 25 1017.7
20260503181804 62 346 3.0 7.0 0.00 0.00 0.00 28 1017.7
20260503181303 62 329 2.0 8.0 0.00 0.00 0.00 27 1017.7
20260503180303 62 253 1.0 3.0 0.00 0.00 0.00 29 1017.9
20260503175804 62 245 3.0 6.0 0.00 0.00 0.00 28 1018.0
20260503174304 61 235 2.0 7.0 0.00 0.00 0.00 27 1017.9
20260503173803 61 215 3.0 6.0 0.00 0.00 0.00 27 1018.0
20260503173304 61 241 2.0 3.0 0.00 0.00 0.00 28 1018.1
20260503172803 61 49 2.0 7.0 0.00 0.00 0.00 31 1018.2
20260503172305 60 321 2.0 5.0 0.00 0.00 0.00 30 1018.1
20260503171804 60 235 2.0 5.0 0.00 0.00 0.00 28 1018.2
20260503171303 60 220 3.0 8.0 0.00 0.00 0.00 28 1018.3
20260503170804 60 337 2.0 9.0 0.00 0.00 0.00 33 1018.5
20260503150803 54 222 1.0 5.0 0.00 0.00 0.00 36 1019.8
20260503150303 54 342 1.0 7.0 0.00 0.00 0.00 35 1019.8
20260503140303 51 233 2.0 5.0 0.00 0.00 0.00 38 1020.0
20260503131305 48 160 2.0 7.0 0.00 0.00 0.00 42 1019.7
20260503130805 47 237 2.0 9.0 0.00 0.00 0.00 43 1019.7
20260503110803 39 231 0.0 1.0 0.00 0.00 0.00 61 1018.8
20260503110303 39 231 0.0 1.0 0.00 0.00 0.00 61 1018.6
20260503090304 41 233 0.0 2.0 0.00 0.00 0.00 56 1016.9
20260503081304 41 242 0.0 1.0 0.00 0.00 0.00 62 1016.3
20260503080804 41 249 0.0 1.0 0.00 0.00 0.00 64 1016.3
20260503072804 41 219 0.0 2.0 0.00 0.00 0.00 67 1016.1
20260503072305 41 242 0.0 2.0 0.00 0.00 0.00 64 1015.9
20260503071804 41 253 0.0 2.0 0.00 0.00 0.00 65 1016.0
20260503071304 40 239 0.0 1.0 0.00 0.00 0.00 67 1016.0
20260503070803 40 222 0.0 0.0 0.00 0.00 0.00 68 1015.9
20260503070304 40 222 0.0 1.0 0.00 0.00 0.00 68 1015.9
20260503060304 38 242 0.0 0.0 0.00 0.00 0.00 70 1015.7
20260503054804 39 242 0.0 0.0 0.00 0.00 0.00 69 1015.8
20260503054304 39 242 0.0 0.0 0.00 0.00 0.00 68 1015.7
20260503053805 39 242 0.0 0.0 0.00 0.00 0.00 68 1015.7
20260503053304 39 242 0.0 0.0 0.00 0.00 0.00 67 1015.7
20260503052305 40 242 0.0 0.0 0.00 0.00 0.00 66 1015.7
20260503051805 40 242 0.0 0.0 0.00 0.00 0.00 66 1015.7
20260503050804 40 242 0.0 0.0 0.00 0.00 0.00 66 1015.6
20260503050304 40 242 0.0 0.0 0.00 0.00 0.00 66 1015.6
20260503045803 40 242 0.0 0.0 0.00 0.00 0.00 64 1015.6
20260503044304 41 242 0.0 0.0 0.00 0.00 0.00 62 1015.5
20260503043803 41 242 0.0 0.0 0.00 0.00 0.00 62 1015.6
20260503043303 41 242 0.0 0.0 0.00 0.00 0.00 61 1015.5
20260503042805 42 242 0.0 0.0 0.00 0.00 0.00 61 1015.5
20260503042305 42 242 0.0 1.0 0.00 0.00 0.00 60 1015.5
20260503041803 42 242 0.0 0.0 0.00 0.00 0.00 59 1015.5
20260503041303 42 242 0.0 0.0 0.00 0.00 0.00 60 1015.6
20260503040803 43 242 0.0 0.0 0.00 0.00 0.00 59 1015.6
20260503040303 43 242 0.0 0.0 0.00 0.00 0.00 58 1015.6
20260503035803 43 242 0.0 0.0 0.00 0.00 0.00 56 1015.5
20260503035304 43 242 0.0 0.0 0.00 0.00 0.00 54 1015.5
20260503034304 44 242 0.0 0.0 0.00 0.00 0.00 53 1015.5
20260503033303 45 242 0.0 0.0 0.00 0.00 0.00 52 1015.4
20260503032304 46 242 0.0 0.0 0.00 0.00 0.00 52 1015.3
20260503031804 46 242 0.0 0.0 0.00 0.00 0.00 51 1015.2
20260503031304 47 242 0.0 1.0 0.00 0.00 0.00 50 1015.2
20260503030804 47 242 0.0 0.0 0.00 0.00 0.00 49 1015.2
20260503030304 47 242 0.0 0.0 0.00 0.00 0.00 47 1015.2
20260503025804 48 242 0.0 0.0 0.00 0.00 0.00 47 1015.2
20260503023804 48 239 0.0 1.0 0.00 0.00 0.00 45 1015.2
20260503023305 48 241 0.0 1.0 0.00 0.00 0.00 46 1015.3
20260503022803 48 245 1.0 3.0 0.00 0.00 0.00 45 1015.3
20260503021804 49 253 0.0 2.0 0.00 0.00 0.00 45 1015.1
20260503021303 49 270 0.0 1.0 0.00 0.00 0.00 44 1015.1
20260503020804 49 270 0.0 1.0 0.00 0.00 0.00 44 1015.1
20260503020304 49 270 0.0 1.0 0.00 0.00 0.00 43 1015.1
20260503015803 49 275 1.0 3.0 0.00 0.00 0.00 42 1015.1
20260503014803 50 227 0.0 1.0 0.00 0.00 0.00 41 1015.0
20260503014304 50 226 1.0 2.0 0.00 0.00 0.00 40 1014.9
20260503013803 50 252 0.0 2.0 0.00 0.00 0.00 39 1014.9
20260503013303 51 249 2.0 3.0 0.00 0.00 0.00 39 1014.9
20260503012804 51 332 1.0 3.0 0.00 0.00 0.00 38 1014.9
20260503012305 51 221 1.0 1.0 0.00 0.00 0.00 37 1014.8
20260503011803 52 224 1.0 3.0 0.00 0.00 0.00 36 1014.8
20260503011303 52 323 2.0 3.0 0.00 0.00 0.00 36 1014.7
20260503010803 52 227 2.0 6.0 0.00 0.00 0.00 35 1014.7
20260503005804 52 251 2.0 3.0 0.00 0.00 0.00 35 1014.6
20260503005304 52 283 1.0 9.0 0.00 0.00 0.00 34 1014.5
20260503004803 52 227 2.0 3.0 0.00 0.00 0.00 35 1014.4
20260503004303 52 257 2.0 5.0 0.00 0.00 0.00 35 1014.3
20260503003303 53 273 1.0 5.0 0.00 0.00 0.00 34 1014.2
20260503002804 53 237 1.0 3.0 0.00 0.00 0.00 33 1014.1
20260503002305 53 251 1.0 3.0 0.00 0.00 0.00 35 1014.0
20260503001803 53 46 2.0 6.0 0.00 0.00 0.00 35 1013.9
20260503001304 53 241 4.0 8.0 0.00 0.00 0.00 34 1013.8
20260503000804 53 216 2.0 3.0 0.00 0.00 0.00 35 1013.7
20260503000304 53 228 2.0 7.0 0.00 0.00 0.00 35 1013.7
20260502235803 54 264 2.0 7.0 0.00 0.00 0.00 35 1013.6
20260502235304 54 232 2.0 5.0 0.00 0.00 0.00 36 1013.4
20260502234803 54 262 2.0 5.0 0.00 0.00 0.00 35 1013.4
20260502234304 54 240 3.0 7.0 0.00 0.00 0.00 35 1013.3
20260502233804 54 233 2.0 6.0 0.00 0.00 0.00 34 1013.2
20260502233304 55 241 3.0 7.0 0.00 0.00 0.00 35 1013.2
20260502232804 55 238 3.0 7.0 0.00 0.00 0.00 36 1013.0
20260502231304 55 224 0.0 1.0 0.00 0.00 0.00 38 1012.7
20260502230303 56 175 0.0 1.0 0.00 0.00 0.00 40 1012.7
20260502225803 56 184 1.0 2.0 0.00 0.00 0.00 38 1012.7
20260502225304 56 246 1.0 3.0 0.00 0.00 0.00 38 1012.6
20260502224804 56 336 1.0 3.0 0.00 0.00 0.00 38 1012.6
20260502224304 56 251 1.0 2.0 0.00 0.00 0.00 38 1012.5
20260502223804 56 92 1.0 2.0 0.00 0.00 0.00 38 1012.5
20260502223303 57 188 0.0 2.0 0.00 0.00 0.00 37 1012.5
20260502222804 57 132 1.0 2.0 0.00 0.00 0.00 38 1012.4
20260502222305 57 283 1.0 2.0 0.00 0.00 0.00 38 1012.4
20260502221804 57 119 1.0 2.0 0.00 0.00 0.00 37 1012.3
20260502221304 57 174 1.0 3.0 0.00 0.00 0.00 36 1012.3
20260502220804 58 236 2.0 3.0 0.00 0.00 0.00 37 1012.2
20260502220304 58 232 1.0 2.0 0.00 0.00 0.00 38 1012.2
20260502215803 57 225 0.0 2.0 0.00 0.00 0.00 38 1012.2
20260502215305 57 77 1.0 3.0 0.00 0.00 0.00 37 1012.1
20260502214804 58 145 1.0 3.0 0.00 0.00 0.00 37 1012.1
20260502214304 58 104 0.0 3.0 0.00 0.00 0.00 37 1012.0
20260502213803 58 341 1.0 3.0 0.00 0.00 0.00 38 1011.9
20260502213303 58 262 1.0 3.0 0.00 0.00 0.00 38 1011.9
20260502212804 59 214 1.0 3.0 0.00 0.00 0.00 38 1011.8